Tracking 25193 objects as of 17-Jan-2022
HD Live streaming from Space Station
objects crossing your sky now

STARLINK-2564

Track STARLINK-2564 now!
10-day predictions
STARLINK-2564 is classified as:


NORAD ID: 48284
Int'l Code: 2021-036J
Perigee: 553.2 km
Apogee: 555.5 km
Inclination: 53.1 °
Period: 95.6 minutes
Semi major axis: 6925 km
RCS: Unknown
Launch date: April 29, 2021
Source: United States (US)
Launch site: AIR FORCE EASTERN TEST RANGE (AFETR)
aabbcc
Your satellite tracking list
Your tracking list is empty




NASA's NSSDC Master Catalog

Two Line Element Set (TLE):
1 48284U 21036J   22016.75263417  .00002198  00000-0  16635-3 0  9998
2 48284  53.0546  33.4463 0001685  71.3168 288.8004 15.06410981 40852
Source of the keplerian elements: AFSPC